Terminal Aerodrome Forecast
Issued by NWS North Platte, NE

Home | Current Version | Previous Version | Graphics & Text | Print | Product List | Glossary On
Versions: 1 2 3 4 5 6 7 8 9 10 11 12 13 14
000
FTUS43 KLBF 271000 AAA
TAFVTN
TAF AMD
KVTN 271013Z 2710/2806 19004KT P6SM OVC060
      TEMPO 2710/2714 6SM -RASN BKN012 OVC040
     FM271600 20012KT P6SM SCT012 OVC060
     FM271800 32014G22KT P6SM OVC070
     FM280000 36008KT P6SM OVC100=

USA.gov is the U.S. government's official web portal to all federal, state and local government web resources and services.